TimeEST,TemperatureF,Dew PointF,Humidity,Sea Level PressureIn,VisibilityMPH,Wind Direction,Wind SpeedMPH,Gust SpeedMPH,PrecipitationIn,Events,Conditions,WindDirDegrees,DateUTC
12:54 AM,36.0,34.0,93,29.86,3.0,NW,5.8,-,N/A,,Clear,310,2013-12-03 05:54:00
1:13 AM,37.0,35.1,93,29.87,2.5,NW,5.8,-,N/A,,Clear,320,2013-12-03 06:13:00
1:35 AM,36.0,34.0,93,29.87,2.0,NW,6.9,-,N/A,,Clear,320,2013-12-03 06:35:00
1:54 AM,36.0,34.0,93,29.87,3.0,NNW,5.8,-,N/A,,Clear,330,2013-12-03 06:54:00
2:54 AM,37.9,35.1,89,29.86,4.0,NNE,4.6,-,N/A,,Clear,20,2013-12-03 07:54:00
3:54 AM,39.0,36.0,89,29.87,4.0,NW,8.1,-,N/A,,Overcast,320,2013-12-03 08:54:00
4:54 AM,41.0,37.0,86,29.88,6.0,NNW,5.8,-,N/A,,Overcast,340,2013-12-03 09:54:00
5:54 AM,42.1,37.0,82,29.89,6.0,North,5.8,-,N/A,,Haze,10,2013-12-03 10:54:00
6:54 AM,42.1,37.0,82,29.91,6.0,NNW,5.8,-,N/A,,Haze,340,2013-12-03 11:54:00
7:54 AM,43.0,37.0,80,29.93,5.0,NNW,8.1,-,N/A,,Haze,330,2013-12-03 12:54:00
8:54 AM,44.1,37.9,79,29.96,5.0,NNW,9.2,-,N/A,,Haze,340,2013-12-03 13:54:00
9:54 AM,50.0,41.0,71,29.96,7.0,WSW,6.9,-,N/A,,Scattered Clouds,250,2013-12-03 14:54:00
10:54 AM,55.0,42.1,62,29.94,9.0,ESE,4.6,-,N/A,,Partly Cloudy,110,2013-12-03 15:54:00
11:54 AM,57.0,33.1,40,29.92,10.0,SSE,4.6,-,N/A,,Clear,160,2013-12-03 16:54:00
12:54 PM,59.0,36.0,42,29.92,10.0,WNW,6.9,-,N/A,,Clear,290,2013-12-03 17:54:00
1:54 PM,57.9,32.0,37,29.93,10.0,West,8.1,-,N/A,,Partly Cloudy,280,2013-12-03 18:54:00
2:54 PM,57.0,32.0,39,29.94,10.0,NW,8.1,-,N/A,,Partly Cloudy,310,2013-12-03 19:54:00
3:54 PM,55.0,34.0,45,29.95,10.0,West,3.5,-,N/A,,Clear,260,2013-12-03 20:54:00
4:54 PM,52.0,34.0,50,29.98,10.0,Calm,Calm,-,N/A,,Mostly Cloudy,0,2013-12-03 21:54:00
5:54 PM,48.0,37.0,66,29.98,10.0,Calm,Calm,-,N/A,,Partly Cloudy,0,2013-12-03 22:54:00
6:54 PM,46.0,36.0,68,29.99,10.0,Calm,Calm,-,N/A,,Clear,0,2013-12-03 23:54:00
7:54 PM,44.1,36.0,73,29.99,10.0,Calm,Calm,-,N/A,,Clear,0,2013-12-04 00:54:00
8:54 PM,44.1,39.0,82,30.00,10.0,SW,5.8,-,N/A,,Clear,220,2013-12-04 01:54:00
9:54 PM,43.0,39.0,86,30.01,10.0,SSW,3.5,-,N/A,,Clear,210,2013-12-04 02:54:00
10:54 PM,44.1,39.9,85,30.02,8.0,SSW,3.5,-,N/A,,Partly Cloudy,210,2013-12-04 03:54:00
11:54 PM,43.0,39.0,86,30.02,7.0,Calm,Calm,-,N/A,,Clear,0,2013-12-04 04:54:00